Adelanto, CA

6:58 AM PST on December 09, 2016 (GMT -0800)
Palmdale - Butte

Weather History for KGXA - October, 2013

Change the Weather History Date:

Saturday, October 12, 2013

  Actual Average (KPMD) Record (KPMD)
Temperature  
Mean Temperature 60 °F -  
Max Temperature 75 °F 80 °F 96 °F (1950)
Min Temperature 46 °F 48 °F 31 °F (2008)
Degree Days  
Heating Degree Days 4    
Growing Degree Days 10 (Base 50)    
Moisture  
Dew Point 31 °F    
Average Humidity 37    
Maximum Humidity 56    
Minimum Humidity 16    
Precipitation  
Precipitation 0.00 in - - ()
Sea Level Pressure  
Sea Level Pressure 29.93 in    
Wind  
Wind Speed 5 mph (West)    
Max Wind Speed 14 mph    
Max Gust Speed 14 mph    
Visibility 10 miles    
Events      
Averages and records for this station are not official NWS values.
T = Trace of Precipitation, MM = Missing Value Source: NWS Daily Summary

Daily Weather History Graph

Daily Weather History Graph

Search for Another Location

Airport or City:

Trip Planner

Search our weather history database for the weather conditions in past years. The results will help you decide how hot, cold, wet, or windy it might be!

Date:

Astronomy

Oct. 12, 2013 Rise Set
Actual Time 6:54 AM PDT 6:19 PM PDT
Civil Twilight 6:28 AM PDT 6:44 PM PDT
Nautical Twilight 5:59 AM PDT 7:13 PM PDT
Astronomical Twilight 5:30 AM PDT 7:43 PM PDT
Moon 2:18 PM PDT (10/12) 12:17 AM PDT (10/12)
Length of Visible Light 12h 16m
Length of Day
11h 25m
First Quarter, 60% of the Moon is Illuminated
Oct 12
First Quarter
Oct 18
Full
Oct 26
Last Quarter
Nov 3
New
Nov 9
First Quarter

Hourly Weather History & Observations

Time (PDT) Temp. Windchill Dew Point Humidity Pressure Visibility Wind Dir Wind Speed Gust Speed Precip Events Conditions
12:55 AM 47.3 °F - 32.0 °F 55% 29.99 in 10.0 mi SE 4.6 mph - N/A   Clear
1:55 AM 49.1 °F - 32.7 °F 53% 29.97 in 10.0 mi South 5.8 mph - N/A   Clear
2:55 AM 48.4 °F - 32.5 °F 54% 29.96 in 10.0 mi South 5.8 mph - N/A   Clear
3:55 AM 48.4 °F - 32.4 °F 54% 29.95 in 10.0 mi South 6.9 mph - N/A   Clear
4:55 AM 47.3 °F - 32.2 °F 56% 29.96 in 10.0 mi Variable 6.9 mph - N/A   Clear
5:55 AM 46.8 °F - 31.5 °F 55% 29.97 in 10.0 mi South 5.8 mph - N/A   Clear
6:55 AM 46.2 °F 42.7 °F 30.4 °F 54% 29.99 in 10.0 mi Variable 6.9 mph - N/A   Clear
7:55 AM 51.1 °F - 32.0 °F 48% 30.00 in 10.0 mi Variable 4.6 mph - N/A   Clear
8:55 AM 60.3 °F - 32.4 °F 35% 30.00 in 10.0 mi North 2.3 mph - N/A   Clear
9:55 AM 63.3 °F - 28.9 °F 27% 29.99 in 10.0 mi NNE 2.3 mph - N/A   Clear
10:55 AM 66.6 °F - 28.9 °F 24% 29.98 in 10.0 mi NNW 5.8 mph - N/A   Clear
11:55 AM 69.6 °F - 28.8 °F 22% 29.96 in 10.0 mi WNW 3.5 mph - N/A   Clear
12:55 PM 72.3 °F - 23.5 °F 16% 29.93 in 10.0 mi WNW 6.9 mph 13.8 mph N/A   Clear
1:55 PM 72.3 °F - 27.5 °F 19% 29.91 in 10.0 mi Variable 2.3 mph - N/A   Clear
2:55 PM 75.6 °F - 26.8 °F 16% 29.88 in 10.0 mi WSW 2.3 mph - N/A   Clear
3:55 PM 75.9 °F - 26.8 °F 16% 29.86 in 10.0 mi Variable 2.3 mph - N/A   Clear
4:55 PM 74.5 °F - 25.9 °F 16% 29.85 in 10.0 mi WNW 10.4 mph - N/A   Clear
5:55 PM 70.9 °F - 33.1 °F 25% 29.86 in 10.0 mi WNW 13.8 mph - N/A   Clear
6:55 PM 66.4 °F - 36.1 °F 33% 29.88 in 10.0 mi West 11.5 mph - N/A   Clear
7:55 PM 64.0 °F - 34.5 °F 33% 29.89 in 10.0 mi SSE 4.6 mph - N/A   Clear
8:55 PM 58.3 °F - 33.8 °F 40% 29.89 in 10.0 mi North 4.6 mph - N/A   Clear
9:55 PM 55.9 °F - 33.6 °F 43% 29.91 in 10.0 mi NNW 2.3 mph - N/A   Clear
10:55 PM 51.6 °F - 32.5 °F 48% 29.91 in 10.0 mi SSE 4.6 mph - N/A   Clear
11:55 PM 48.9 °F - 32.5 °F 53% 29.90 in 10.0 mi ENE 1.2 mph - N/A   Clear